• MPC Preparation (Info)

  • MPEC 2013-A76 : 2013 AV60

    The following Minor Planet Electronic Circular may be linked-to from your own Web pages, but must not otherwise be redistributed electronically.

    A form allowing access to any MPEC is at the bottom of this page.


    Read MPEC 2013-A75 Read MPEC 2013-A77


    M.P.E.C. 2013-A76                                Issued 2013 Jan. 12, 13:59 UT
    
         The Minor Planet Electronic Circulars contain information on unusual
             minor planets and routine data on comets.  They are published
       on behalf of Commission 20 of the International Astronomical Union by the
              Minor Planet Center, Smithsonian Astrophysical Observatory,
                              Cambridge, MA 02138, U.S.A.
    
                 Prepared using the Tamkin Foundation Computer Network
    
                                  MPC@CFA.HARVARD.EDU
                URL https://www.minorplanetcenter.net/    ISSN 1523-6714
    
                                       2013 AV60
    
    Observations:
         K13A60V* C2013 01 09.12399 01 59 39.30 -08 22 46.0          18.9 VrEA076703
         K13A60V  C2013 01 09.13082 01 59 42.72 -08 22 22.6          18.8 VrEA076703
         K13A60V  C2013 01 09.14456 01 59 49.63 -08 21 34.3          18.3 VrEA076703
         K13A60V  C2013 01 09.17962 02 00 07.02 -08 19 32.4          19.9 RoEA076G48
         K13A60V  C2013 01 09.18147 02 00 07.99 -08 19 25.7          19.7 RoEA076G48
         K13A60V  C2013 01 09.18207 02 00 08.27 -08 19 23.4          20.2 RoEA076G48
         K13A60V  C2013 01 09.18425 02 00 09.36 -08 19 15.7          18.5 VrEA076703
         K13A60V  C2013 01 09.19049 02 00 12.46 -08 18 54.6          18.8 VrEA076703
         K13A60V  C2013 01 09.19676 02 00 15.67 -08 18 33.1          18.5 VrEA076703
         K13A60V  C2013 01 09.20997 02 00 22.18 -08 17 47.0          18.4 RtEA076H01
         K13A60V  C2013 01 09.21597 02 00 25.19 -08 17 26.0          18.6 RtEA076H01
         K13A60V  C2013 01 09.22577 02 00 30.08 -08 16 51.6          18.9 RtEA076H01
         K13A60V  C2013 01 09.23239 02 00 33.37 -08 16 28.5          18.9 RtEA076H01
         K13A60V  C2013 01 09.49641 02 02 46.00 -08 01 15.6          19.2 RoEA076300
         K13A60V  C2013 01 09.50544 02 02 50.46 -08 00 43.9          19.2 RoEA076300
         K13A60V  C2013 01 09.50845 02 02 51.88 -08 00 33.6          19.2 RoEA076300
         K13A60V  C2013 01 09.51146 02 02 53.37 -08 00 22.8          18.9 RoEA076300
         K13A60V `C2013 01 09.54923102 03 11.84 -07 57 48.5          19.0 RvEA076D90
         K13A60V `C2013 01 09.55355802 03 13.98 -07 57 33.9          18.6 RvEA076D90
         K13A60V `C2013 01 09.55768302 03 16.00 -07 57 19.2          18.6 RvEA076D90
         K13A60V |C2013 01 10.03724 02 07 11.96 -07 30 03.9          19.1 VuEA076807
         K13A60V |C2013 01 10.04214 02 07 14.30 -07 29 47.4          19.4 VuEA076807
         K13A60V |C2013 01 10.04459 02 07 15.49 -07 29 38.9          19.0 VuEA076807
         K13A60V  C2013 01 10.06443 02 07 25.77 -07 28 54.5          19.0  cEA076704
         K13A60V  C2013 01 10.07746 02 07 31.99 -07 28 09.3          19.1  cEA076704
         K13A60V  C2013 01 10.09039 02 07 38.08 -07 27 26.1          19.5  cEA076704
         K13A60V  C2013 01 10.11624 02 07 50.45 -07 25 58.1          19.5  cEA076704
         K13A60V  C2013 01 10.15328 02 08 08.07 -07 23 53.2          18.6 RtEA076H01
         K13A60V  C2013 01 10.16428 02 08 13.31 -07 23 16.0          18.4 RtEA076H01
         K13A60V  C2013 01 10.16919 02 08 15.66 -07 22 59.2          18.3 RtEA076H01
         K13A60V  C2013 01 10.17589 02 08 18.84 -07 22 36.7          18.7 RtEA076H01
         K13A60V `C2013 01 10.47830802 10 43.78 -07 05 18.1                uEA076D90
         K13A60V `C2013 01 10.48171302 10 45.38 -07 05 07.3          18.8 RuEA076D90
         K13A60V `C2013 01 10.48511602 10 46.96 -07 04 55.8          18.8 RuEA076D90
         K13A60V |C2013 01 11.03828 02 15 06.76 -06 34 28.2          18.9 VuEA076807
         K13A60V |C2013 01 11.03953 02 15 07.32 -06 34 24.4          19.1 VuEA076807
         K13A60V |C2013 01 11.04010 02 15 07.57 -06 34 22.2          18.9 VuEA076807
         K13A60V  C2013 01 11.45770 02 18 19.33 -06 12 05.9          19.5 RoEA076300
         K13A60V  C2013 01 11.46037 02 18 20.48 -06 11 57.9          19.5 RoEA076300
         K13A60V  C2013 01 11.46269 02 18 21.52 -06 11 50.7          19.4 RoEA076300
         K13A60V  C2013 01 11.46501 02 18 22.55 -06 11 42.4          19.5 RoEA076300
         K13A60V  C2013 01 11.46733 02 18 23.59 -06 11 34.9          19.5 RoEA076300
         K13A60V KC2013 01 11.74869 02 20 30.91 -05 56 35.4          18.5 VuEA076595
         K13A60V KC2013 01 11.75688 02 20 34.53 -05 56 09.6          18.9 VuEA076595
         K13A60V KC2013 01 11.76815 02 20 39.82 -05 55 31.8          19.0 RuEA076958
         K13A60V KC2013 01 11.78470 02 20 47.13 -05 54 39.3          19.1 RuEA076958
         K13A60V KC2013 01 11.78990 02 20 49.18 -05 54 23.1                tEA076204
         K13A60V KC2013 01 11.79293 02 20 50.83 -05 54 12.3          18.6 RuEA076958
         K13A60V KC2013 01 11.80119 02 20 54.38 -05 53 47.2          18.6 RuEA076958
         K13A60V KC2013 01 11.80151 02 20 54.32 -05 53 46.6          18.9 RtEA076204
         K13A60V KC2013 01 11.80968 02 20 58.16 -05 53 18.7          19.2 RuEA076958
         K13A60V |C2013 01 12.03323 02 22 37.25 -05 41 06.8          19.1 VuEA076807
         K13A60V |C2013 01 12.03550 02 22 38.26 -05 40 59.5          19.6 VuEA076807
         K13A60V |C2013 01 12.03778 02 22 39.22 -05 40 52.2          19.2 VuEA076807
         K13A60V |C2013 01 12.04005 02 22 40.23 -05 40 45.2          19.4 VuEA076807
         K13A60V |C2013 01 12.04232 02 22 41.22 -05 40 38.1          19.3 VuEA076807
    
    Observer details:
    204 Schiaparelli Observatory.  Observer L. Buzzi.  0.38-m f/6.8 reflector
        + CCD.
    300 Bisei Spaceguard Center--BATTeRS.  Observers A. Asami, S. Okumura,
        S. Urakawa.  1.0-m f/3.0 reflector + CCD.
    595 Farra d'Isonzo.  Observer E. Pettarin.  0.40-m f/4.5 reflector + CCD.
    703 Catalina Sky Survey.  Observer A. D. Grauer.  Measurers A. Boattini,
        E. J. Christensen, A. R. Gibbs, A. D. Grauer, R. E. Hill, J. A. Johnson,
        R. A. Kowalski, S. M. Larson, R. H. McNaught.  0.68-m Schmidt + CCD.
    704 Lincoln Laboratory ETS, New Mexico.  Observers M. Blythe, G. Spitz,
        R. Brungard, J. Paige, P. Festler, T. McVey, A. Valdivia, C. Gall.  1.0-m
        f/2.15 reflector + CCD.
    807 Cerro Tololo.  Observers T. Linder, R. Holmes, H. Tanquary.  0.41-m f/11
        Ritchey-Chretien + CCD.
    958 Observatoire de Dax.  Observers P. Dupouy, J. B. de Vanssay, G. Soulie.
        Measurer P. Dupouy.  0.43-m f/2.7 reflector + CCD.
    D90 RAS Observatory, Moorook.  Observer K. Hills.  0.41-m f/9 Ritchey-Chretien
        + CCD.
    G48 Doc Greiner Research Obs., Rancho Hildalgo.  Observer M. Mills.  0.40-m
        f/10 Schmidt-Cassegrain + CCD.
    H01 Magdalena Ridge Observatory, Socorro.  Observer W. H. Ryan.  2.4-m f/8.9
        reflector + CCD.
    
    Orbital elements:
    2013 AV60                                                Earth MOID = 0.1097 AU
    Epoch 2012 Sept. 30.0 TT = JDT 2456200.5                MPC
    M 344.90750              (2000.0)            P               Q
    n   0.32000219     Peri.  151.29316     +0.97925262     +0.19897633
    a   2.1169020      Node   197.35681     -0.20164627     +0.93803825
    e   0.7392899      Incl.    7.39105     -0.02007730     +0.28371229
    P   3.08           H   18.7           G   0.15           U   9
    Residuals in seconds of arc
    130109 703  0.6-  0.6+    130109 D90  0.1-  0.1+    130111 300  0.4-  0.5-
    130109 703  0.4-  0.2+    130110 807  0.4-  0.1-    130111 300  0.4-  0.8-
    130109 703  0.4+  0.5+    130110 807  0.5-  0.2-    130111 300  0.5-  0.0
    130109 G48  0.4-  0.2-    130110 807  0.2-  0.0     130111 300  0.5-  0.0
    130109 G48  0.3+  0.0     130110 704  0.6+  0.6-    130111 595  0.3-  0.6-
    130109 G48  0.0   0.2+    130110 704  0.7+  0.5+    130111 595  0.3-  0.9-
    130109 703  0.5-  0.5+    130110 704  0.5-  0.1-    130111 958  0.6+  0.4+
    130109 703  0.6-  0.2-    130110 704  0.3+  0.4+    130111 958  0.6+  0.1+
    130109 703  0.6+  0.6-    130110 H01  0.2-  0.1+    130111 204  0.6-  0.2+
    130109 H01  0.0   0.2-    130110 H01  0.1-  0.1+    130111 958  1.7+  0.9+
    130109 H01  0.2+  0.2-    130110 H01  0.1+  0.3+    130111 958  0.3+  0.3-
    130109 H01  0.2+  0.0     130110 H01  0.1-  0.1+    130111 204  0.4-  0.3-
    130109 H01  0.1-  0.0     130110 D90  0.5+  0.3+    130111 958  0.8+  1.1+
    130109 300  0.3+  0.4-    130110 D90  0.6+  0.3-    130112 807  0.4-  0.2+
    130109 300  0.7+  0.1+    130110 D90  0.3+  0.2-    130112 807  0.1-  0.3+
    130109 300  0.2-  0.0     130111 807  0.0   0.4-    130112 807  0.5-  0.4+
    130109 300  0.0   0.4+    130111 807  0.2-  0.7-    130112 807  0.2-  0.3+
    130109 D90  0.1-  0.0     130111 807  0.3-  0.4-    130112 807  0.2-  0.2+
    130109 D90  0.1+  0.3-    130111 300  0.3+  0.1+
    
    Ephemeris:
    2013 AV60                a,e,i = 2.12, 0.74, 7                   q = 0.5519
    Date    TT    R. A. (2000) Decl.     Delta      r     Elong.  Phase     V
    2012 12 13    20 47 16.0 -26 14 48   0.4396  0.7527    46.5   108.4    20.4
    ...
    2012 12 28    23 47 57.8 -20 44 08   0.3436  0.9429    73.1    86.4    19.3
    ...
    2013 01 05    01 21 23.5 -12 34 52   0.3720  1.0466    89.2    70.0    19.1
    ...
    2013 01 11    02 14 49.1 -06 36 44   0.4245  1.1235    97.9    60.1    19.2
    2013 01 12    02 22 22.6 -05 43 03   0.4352  1.1362    99.0    58.8    19.3
    2013 01 13    02 29 35.5 -04 51 20   0.4464  1.1489   100.0    57.5    19.3
    ...
    2013 01 19    03 06 40.0 -00 21 48   0.5223  1.2241   104.5    51.1    19.6
    ...
    2013 01 27    03 43 48.4 +04 04 33   0.6405  1.3220   107.0    45.4    20.1
    ...
    2013 02 11    04 32 38.4 +09 21 32   0.8954  1.4975   105.3    39.5    20.9
    
    A. U. Tomatic                (C) Copyright 2013 MPC           M.P.E.C. 2013-A76
    

    Read MPEC 2013-A75 Read MPEC 2013-A77


    MPEC number:

    Enter an MPEC number in one of the following forms:

    • 1997-B01 (the full form)
    • J97B01 (the packed version of the full form)
    • B01 (the abbreviated form)